Weather reports worldwide

Advertisment
Wick Airport (AWS), United Kingdom (3075): temperature & dewpoint: 06.11.2019 06:00:00 - 12.11.2019 06:00:00 (GMT)Wick Airport (AWS), United Kingdom (3075): temperature -20cm: 06.11.2019 06:00:00 - 12.11.2019 06:00:00 (GMT)Wick Airport (AWS), United Kingdom (3075): wind speed & gusts: 06.11.2019 06:00:00 - 12.11.2019 06:00:00 (GMT)Wick Airport (AWS), United Kingdom (3075): wind direction: 06.11.2019 06:00:00 - 12.11.2019 06:00:00 (GMT)Wick Airport (AWS), United Kingdom (3075): reduced air pressure: 06.11.2019 06:00:00 - 12.11.2019 06:00:00 (GMT)Wick Airport (AWS), United Kingdom (3075): visibility: 06.11.2019 06:00:00 - 12.11.2019 06:00:00 (GMT)Wick Airport (AWS), United Kingdom (3075): precipitation: 06.11.2019 06:00:00 - 12.11.2019 06:00:00 (GMT)
Date & Time tt [°C] td [°C] tt -20cm [°C] ff [km/h] ff [kn] fx [km/h] fx [kn] dd ppp [hPa] vv [km] rr [mm]
12.11.2019 06:00:00 7,1 5,2 - 46 25 67 36 NNE 993,0 10 -
12.11.2019 05:00:00 7,4 5,5 - 46 25 59 32 NNE 992,3 13 0,0
12.11.2019 04:00:00 7,4 5,3 - 42 23 59 32 NNE 991,7 12 0,6
12.11.2019 03:00:00 7,5 5,4 - 42 23 59 32 NNE 991,3 15 0,0
12.11.2019 02:00:00 7,5 4,5 - 39 21 55 30 ENE 990,8 24 1,0
12.11.2019 01:00:00 8,3 5,6 - 37 20 48 26 NE 990,4 17 0,0
12.11.2019 00:00:00 7,6 6,4 - 24 13 - - NE 990,3 10 1,6
11.11.2019 23:00:00 6,7 5,2 - 18 10 - - NNE 990,2 29 0,4
11.11.2019 22:00:00 7,0 5,3 - 29 16 - - ENE 990,2 13 0,4
11.11.2019 21:00:00 7,4 5,8 - 21 11 - - ENE 989,9 19 0,4
11.11.2019 20:00:00 7,2 5,2 - 22 12 - - ENE 989,8 21 0,2
11.11.2019 19:00:00 6,4 5,0 - 13 7 - - ENE 989,7 23 1,4
11.11.2019 18:00:00 7,2 5,8 - 35 19 - - ENE 989,6 17 0,2
11.11.2019 17:00:00 7,2 5,5 - 26 14 - - E 989,3 21 0,2
11.11.2019 16:00:00 6,9 4,7 - 21 11 46 25 E 989,3 17 1,0
11.11.2019 15:00:00 7,8 5,5 - 31 17 48 26 E 989,3 15 0,6
11.11.2019 14:00:00 7,4 5,9 - 37 20 59 32 E 989,8 7 1,2
11.11.2019 13:00:00 8,2 5,5 - 34 18 52 28 E 989,9 10 0,0
11.11.2019 12:00:00 7,9 5,3 - 41 22 54 29 E 990,3 17 0,2
11.11.2019 11:00:00 7,4 5,3 - 42 23 52 28 E 991,0 12 0,6
11.11.2019 10:00:00 7,1 5,4 - 37 20 50 27 E 991,1 5 0,8
11.11.2019 09:00:00 6,5 5,1 5,7 34 18 55 30 E 991,5 8 1,2
11.11.2019 08:00:00 6,5 4,8 - 42 23 65 35 E 991,9 12 2,0
11.11.2019 07:00:00 6,5 5,0 - 46 25 63 34 E 992,2 7 1,4
11.11.2019 06:00:00 6,4 4,5 - 34 18 63 34 ESE 993,1 21 1,8
11.11.2019 05:00:00 5,8 4,3 - 37 20 55 30 ESE 994,2 5 1,2
11.11.2019 04:00:00 5,8 3,9 - 31 17 48 26 ESE 995,4 16 0,8
11.11.2019 03:00:00 4,6 2,8 - 29 16 46 25 ESE 997,0 21 0,6
11.11.2019 02:00:00 4,7 1,8 - 29 16 52 28 SE 998,7 12 0,4
11.11.2019 01:00:00 5,0 1,7 - 29 16 48 26 SSE 1000,1 15 0,2
11.11.2019 00:00:00 6,3 -1,5 - 28 15 48 26 SE 1001,2 45 0,0
10.11.2019 23:00:00 6,0 -0,5 - 29 16 50 27 ESE 1002,8 45 0,0
10.11.2019 22:00:00 6,2 -2,8 - 24 13 - - ESE 1004,6 45 0,0
10.11.2019 21:00:00 5,1 0,1 - 24 13 50 27 ESE 1006,9 15 0,0
10.11.2019 20:00:00 6,1 -3,8 - 28 15 - - ESE 1007,9 50 0,0
10.11.2019 19:00:00 6,2 -4,8 - 24 13 - - ESE 1008,9 50 0,0
10.11.2019 18:00:00 6,0 -2,7 - 26 14 - - ESE 1010,0 35 0,0
10.11.2019 17:00:00 6,1 -3,1 - 22 12 - - ESE 1011,4 45 0,0
10.11.2019 16:00:00 5,8 -1,9 - 16 9 - - ESE 1012,2 40 0,0
10.11.2019 15:00:00 6,1 -2,3 - 21 11 - - E 1013,6 40 0,0
10.11.2019 14:00:00 6,3 -2,1 - 18 10 - - E 1014,7 30 0,0
10.11.2019 13:00:00 6,5 -1,8 - 18 10 - - ESE 1015,9 50 0,0
10.11.2019 12:00:00 6,3 -2,2 - 16 9 - - E 1016,6 35 0,0
10.11.2019 11:00:00 5,8 -0,9 - 24 13 - - ENE 1017,2 30 0,0
10.11.2019 10:00:00 5,7 -1,5 - 21 11 - - ENE 1017,8 40 0,0
10.11.2019 09:00:00 3,6 -3,0 5,9 15 8 - - NE 1018,4 30 0,0
10.11.2019 08:00:00 4,8 -1,4 - 18 10 - - ENE 1018,1 35 0,0
10.11.2019 07:00:00 3,6 -3,8 - 18 10 - - NE 1017,6 40 0,0
10.11.2019 06:00:00 4,9 -3,1 - 24 13 - - ENE 1017,0 50 0,0
10.11.2019 05:00:00 4,7 -2,6 - 24 13 - - NNE 1017,0 40 0,0
10.11.2019 04:00:00 4,3 -2,3 - 22 12 - - NNE 1016,5 45 0,0
10.11.2019 03:00:00 5,2 -2,2 - 24 13 - - NE 1016,1 45 0,0
10.11.2019 02:00:00 4,5 -3,7 - 22 12 - - NNE 1015,8 40 0,0
10.11.2019 01:00:00 4,5 -3,0 - 24 13 - - NE 1015,8 40 0,0
10.11.2019 00:00:00 4,1 -3,0 - 26 14 48 26 NNE 1015,4 50 0,0
09.11.2019 23:00:00 4,8 -2,2 - 22 12 - - NE 1014,8 35 0,0
09.11.2019 22:00:00 4,5 -1,9 - 24 13 - - NNE 1014,1 40 0,0
09.11.2019 21:00:00 5,0 -1,2 - 22 12 - - NNE 1013,5 45 0,0
09.11.2019 20:00:00 4,5 -0,3 - 13 7 - - NE 1012,9 45 0,0
09.11.2019 19:00:00 5,3 -1,1 - - - - - - 1012,6 50 0,0
09.11.2019 18:00:00 5,1 -1,6 - 0 0 - - N 1011,9 50 0,0
09.11.2019 17:00:00 4,6 -1,1 - 0 0 - - N 1011,2 50 0,0
09.11.2019 16:00:00 4,9 -1,3 - 0 0 - - N 1010,6 50 0,0
09.11.2019 15:00:00 5,9 -0,6 - 0 0 - - N 1010,0 50 0,0
09.11.2019 14:00:00 6,5 -0,9 - 0 0 - - N 1009,6 50 0,0
09.11.2019 13:00:00 6,3 0,4 - 0 0 - - N 1009,5 45 0,0
09.11.2019 12:00:00 6,3 -0,8 - 0 0 - - N 1009,0 40 0,0
09.11.2019 11:00:00 6,0 -0,3 - - - - - - 1009,2 50 0,2
09.11.2019 10:00:00 4,0 1,1 - 18 10 46 25 E 1009,6 14 0,4
09.11.2019 09:00:00 5,0 0,9 6,2 22 12 - - E 1009,5 50 0,0
09.11.2019 08:00:00 4,7 0,6 - 11 6 - - SSE 1009,5 50 0,0
09.11.2019 07:00:00 4,6 1,5 - 26 14 - - ESE 1009,5 50 0,0
09.11.2019 06:00:00 4,0 0,9 - 4 2 - - SE 1009,4 50 0,2
09.11.2019 05:00:00 4,3 0,9 - 22 12 - - ESE 1009,8 11 1,6
09.11.2019 04:00:00 4,2 1,7 - 13 7 - - SE 1010,1 3,5 0,8
09.11.2019 03:00:00 4,5 1,8 - 26 14 - - E 1010,1 50 0,0
09.11.2019 02:00:00 3,1 0,2 - 4 2 - - S 1011,1 50 0,0
09.11.2019 01:00:00 2,9 0,6 - 8 4 - - SW 1012,0 50 0,4
09.11.2019 00:00:00 3,8 1,6 - 16 9 - - SSE 1012,6 3,6 0,8
08.11.2019 23:00:00 1,1 -1,6 - 5 3 - - WNW 1012,5 45 0,0
08.11.2019 22:00:00 4,6 0,0 - 15 8 - - SE 1012,8 45 0,0
08.11.2019 21:00:00 4,0 -0,5 - 8 4 - - E 1013,4 45 0,0
08.11.2019 20:00:00 4,5 -0,4 - 11 6 - - E 1013,6 50 0,0
08.11.2019 19:00:00 3,2 0,2 - 15 8 - - ENE 1013,8 50 0,0
08.11.2019 18:00:00 2,1 -0,7 - 4 2 - - W 1014,4 50 0,0
08.11.2019 17:00:00 2,5 -1,0 - 9 5 - - NNW 1014,2 50 0,0
08.11.2019 16:00:00 4,4 1,9 - 18 10 - - NE 1014,2 40 0,0
08.11.2019 15:00:00 5,5 1,0 - 4 2 - - NNE 1014,0 45 0,0
08.11.2019 14:00:00 5,6 1,1 - 16 9 - - NNE 1014,2 40 0,0
08.11.2019 13:00:00 5,2 1,6 - 24 13 - - ENE 1014,5 40 0,0
08.11.2019 12:00:00 5,6 1,8 - 16 9 - - NNW 1014,3 30 0,0
08.11.2019 11:00:00 6,3 1,6 - 15 8 - - NNE 1014,3 28 0,0
08.11.2019 10:00:00 5,6 1,6 - 11 6 - - NNE 1014,2 24 0,0
08.11.2019 09:00:00 4,2 0,0 6,7 18 10 - - NE 1013,9 40 0,0
08.11.2019 08:00:00 3,0 0,5 - 18 10 - - NNE 1013,6 50 0,0
08.11.2019 07:00:00 4,0 1,2 - 9 5 - - N 1013,1 45 0,2
08.11.2019 06:00:00 3,4 0,9 - 18 10 - - N 1012,8 45 0,0
08.11.2019 05:00:00 4,2 0,7 - 28 15 - - NNE 1012,6 40 0,0
08.11.2019 04:00:00 3,7 1,0 - 22 12 46 25 N 1012,2 50 0,0
08.11.2019 03:00:00 3,9 1,8 - 34 18 46 25 NE 1012,1 40 0,0
08.11.2019 02:00:00 3,4 1,8 - 9 5 54 29 NE 1011,7 35 0,6
08.11.2019 01:00:00 3,0 0,8 - 11 6 - - NNW 1011,9 20 0,0
08.11.2019 00:00:00 3,3 0,2 - 21 11 - - NNW 1011,5 40 0,0
07.11.2019 23:00:00 3,9 -1,2 - 29 16 - - N 1011,3 40 0,0
07.11.2019 22:00:00 4,3 1,7 - 35 19 - - NNW 1011,3 20 0,0
07.11.2019 21:00:00 5,1 -0,7 - 29 16 - - N 1010,8 45 0,0
07.11.2019 20:00:00 5,3 -0,5 - 28 15 - - NNE 1010,4 35 0,0
07.11.2019 19:00:00 5,2 -0,8 - 29 16 - - NNE 1010,1 30 0,0
07.11.2019 18:00:00 5,9 -0,1 - 31 17 46 25 NNE 1009,4 40 0,0
07.11.2019 17:00:00 6,1 0,7 - 28 15 52 28 NNE 1008,6 35 0,0
07.11.2019 16:00:00 6,2 0,9 - 26 14 50 27 NNE 1007,9 30 0,0
07.11.2019 15:00:00 6,5 -0,2 - 28 15 48 26 NE 1007,3 35 0,0
07.11.2019 14:00:00 6,8 0,1 - 35 19 57 31 NE 1006,8 45 0,0
07.11.2019 13:00:00 7,0 0,3 - 37 20 50 27 NE 1006,1 35 0,0
07.11.2019 12:00:00 6,9 1,4 - 35 19 52 28 NE 1005,6 35 0,0
07.11.2019 11:00:00 7,0 0,7 - 35 19 - - ENE 1005,1 30 0,2
07.11.2019 10:00:00 6,5 1,1 - 28 15 - - ENE 1004,7 40 0,0
07.11.2019 09:00:00 6,2 1,5 7,0 29 16 - - ENE 1003,9 45 0,0
07.11.2019 08:00:00 5,8 0,3 - 29 16 - - ENE 1003,2 45 0,0
07.11.2019 07:00:00 5,8 1,1 - 29 16 - - NE 1002,6 50 0,0
07.11.2019 06:00:00 5,5 2,1 - 28 15 - - ENE 1002,1 45 0,0
07.11.2019 05:00:00 5,9 1,7 - 28 15 - - ENE 1001,5 50 0,2
07.11.2019 04:00:00 5,9 2,2 - 29 16 - - ENE 1001,3 45 1,2
07.11.2019 03:00:00 4,5 2,1 - 21 11 - - NE 1001,3 7 2,2
07.11.2019 02:00:00 4,6 2,6 - 29 16 - - ENE 1001,3 24 0,0
07.11.2019 01:00:00 4,9 2,5 - 29 16 - - E 1001,0 50 0,0
07.11.2019 00:00:00 4,9 2,6 - 26 14 - - E 1000,8 7 0,2
06.11.2019 23:00:00 5,3 2,7 - 21 11 - - E 1001,1 23 0,0
06.11.2019 22:00:00 5,0 2,6 - 18 10 - - E 1001,2 50 0,0
06.11.2019 21:00:00 4,9 2,8 - 21 11 - - E 1001,4 13 0,2
06.11.2019 20:00:00 4,4 2,6 - 16 9 - - ENE 1001,3 50 0,0
06.11.2019 19:00:00 4,7 2,5 - 16 9 - - ENE 1001,3 50 0,0
06.11.2019 18:00:00 4,6 2,5 - 15 8 - - E 1001,4 45 0,0
06.11.2019 17:00:00 4,5 2,5 - 15 8 - - E 1001,6 50 0,0
06.11.2019 16:00:00 4,7 3,2 - 11 6 - - ENE 1001,6 45 0,0
06.11.2019 15:00:00 4,5 3,6 - 4 2 - - E 1002,3 40 0,0
06.11.2019 14:00:00 4,5 2,9 - 4 2 - - ESE 1002,8 27 0,2
06.11.2019 13:00:00 4,5 3,2 - 4 2 - - E 1003,2 10 0,6
06.11.2019 12:00:00 3,7 2,5 - 9 5 - - ENE 1003,6 7 2,4
06.11.2019 11:00:00 4,1 2,5 - 11 6 - - ENE 1003,9 35 0,2
06.11.2019 10:00:00 4,2 2,9 - 8 4 - - N 1004,4 26 0,0
06.11.2019 09:00:00 3,3 1,9 7,7 13 7 - - NNW 1004,7 7 4,0
06.11.2019 08:00:00 3,4 2,4 - 21 11 - - NNE 1005,0 9 0,2
06.11.2019 07:00:00 2,6 1,8 - 11 6 - - WNW 1005,0 23 0,0
06.11.2019 06:00:00 1,8 -0,1 - 9 5 - - W 1005,1 50 0,0

tt = temperature
td = dewpoint
tt -20cm = temperature -20cm
ff = wind speed
fx = gusts
dd = wind direction
ppp = reduced air pressure
vv = visibility
rr = precipitation

Next stations